[[{"header":{"parameterUnit":"m.s-1","parameterCategory":1,"la1":30.2991,"la2":30.254,"lo1":-89.0895,"lo2":-89.0444,"dy":0.0017,"dx":0.0017,"nx":28,"ny":28,"refTime":"2024-04-28T09:00:00:Z","depth":0,"parameterNumber":2,"parameterNumberName":"U-component_of_WINDS"},"data":[0,0,0,0,0,0,0,0,0,0,0,0,0,0,0,0,0,0,0,0,0,0,0,0,0,0,0,0,0,0,0,0,0,0,0,0,0,0,0,0,0,0,0,0,0,0,0,0,0,0,0,0,0,0,0,0,0,0,-5.7303,-5.7304,0,-5.7435,-5.7437,-5.7438,-5.7438,-5.7436,-5.7434,-5.7433,-5.7567,-5.7572,-5.7577,0,0,0,0,0,0,0,0,0,0,0,0,0,-5.705,-5.7054,-5.7303,-5.7304,-5.7306,-5.7435,-5.7437,-5.7439,-5.7438,-5.7436,-5.7434,-5.7432,-5.7565,-5.7571,-5.7577,0,0,0,0,0,0,0,0,0,0,0,0,0,-5.7169,-5.7056,-5.7302,-5.7321,-5.7324,-5.7435,-5.7437,-5.7439,-5.7438,-5.7436,-5.7433,-5.7431,-5.7563,-5.7571,-5.7578,-5.7678,0,0,-5.7602,-5.7605,0,0,0,0,0,0,0,0,-5.7162,-5.7178,-5.7317,-5.732,-5.7324,-5.7417,-5.7397,-5.7519,-5.7439,-5.7395,-5.7433,-5.743,-5.7519,-5.753,-5.7561,-5.7684,-5.769,-5.7603,-5.7607,-5.7611,-5.7613,0,0,0,0,0,0,0,-5.7154,-5.7172,-5.7355,-5.7319,-5.7323,-5.7323,-5.7337,-5.742,-5.747,-5.7399,-5.7399,-5.7415,-5.752,-5.7553,-5.7564,-5.7692,-5.7602,-5.7609,-5.7614,-5.7617,-5.7906,-5.7909,0,0,0,0,0,0,-5.7142,-5.7165,-5.7351,-5.7359,-5.7235,-5.733,-5.7346,-5.739,-5.7469,-5.7479,-5.7417,-5.7414,-5.7541,-5.7555,-5.7569,-5.769,-5.7611,-5.7618,-5.7622,-5.7903,-5.7906,-5.791,0,0,0,0,0,0,-5.7136,-5.7158,-5.7345,-5.7262,-5.7286,-5.7337,-5.7387,-5.7394,-5.7427,-5.7483,-5.7492,-5.7441,-5.754,-5.7558,-5.7651,-5.7695,-5.7621,-5.7628,-5.7899,-5.7904,-5.7908,-5.7934,0,0,0,0,0,0,-5.7129,-5.7156,-5.7194,-5.7263,-5.7291,-5.7425,-5.739,-5.7398,-5.744,-5.7438,-5.7508,-5.7517,-5.7539,-5.764,-5.7659,-5.7704,-5.7635,-5.7895,-5.7901,-5.7907,-5.793,-5.7939,-5.7947,0,0,0,0,0,-5.712,-5.7196,-5.7196,-5.7218,-5.7339,-5.7428,-5.7444,-5.7468,-5.7444,-5.7482,-5.7519,-5.7515,-5.7688,-5.7649,-5.7671,-5.7719,-5.7893,-5.79,-5.7906,-5.7926,-5.7937,-5.7947,0,0,0,0,0,0,-5.7129,-5.7205,-5.7206,-5.7306,-5.7361,-5.7428,-5.7477,-5.7479,-5.7541,-5.7536,-5.7564,-5.758,-5.7673,-5.7706,-5.7662,-5.7821,-5.7787,-5.7799,-5.7795,-5.7806,-5.7815,-5.7803,-5.7641,0,0,0,0,0,-5.7143,-5.7209,-5.7272,-5.7354,-5.7382,-5.7425,-5.7464,-5.7479,-5.7536,-5.7559,-5.7602,-5.7658,-5.7725,-5.7768,-5.7833,-5.7936,-5.7951,-5.7981,-5.7989,-5.7996,-5.8004,-5.8062,-5.8075,-5.7932,-5.7932,-5.7932,0,0,-5.7171,-5.7221,-5.7261,-5.7357,-5.7401,-5.7469,-5.7444,-5.7516,-5.7566,-5.757,-5.766,-5.7695,-5.7759,-5.7858,-5.7903,-5.7888,-5.8048,-5.8005,-5.801,-5.8014,-5.807,-5.8084,-5.8096,-5.7936,-5.7936,-5.7935,0,0,-5.7257,-5.7302,-5.7376,-5.7421,-5.7489,-5.7518,-5.7536,-5.7603,-5.7626,-5.7718,-5.7722,-5.7784,-5.7899,-5.7944,-5.7982,-5.809,-5.8088,-5.8111,-5.8155,-5.8211,-5.8222,-5.8232,-5.8269,-5.8282,-5.812,-5.812,-5.812,0,-5.7283,-5.7385,-5.7413,-5.7486,-5.7528,-5.7537,-5.7612,-5.7655,-5.774,-5.7769,-5.7752,-5.7897,-5.7941,-5.805,-5.8077,-5.8109,-5.813,-5.8101,-5.8218,-5.8229,-5.8238,-5.8274,-5.8288,-5.8122,-5.8122,-5.8122,-5.8122,0,-5.7414,-5.7485,-5.7537,-5.7619,-5.7668,-5.7742,-5.7781,-5.7828,-5.784,-5.7871,-5.7965,-5.8019,-5.8095,-5.8123,-5.8135,-5.8235,-5.8224,-5.8212,-5.8178,-5.8254,-5.8287,-5.8301,-5.8125,-5.8125,-5.8124,-5.8123,0,0,-5.7504,-5.7604,-5.7622,-5.766,-5.7738,-5.7793,-5.7868,-5.7944,-5.7982,-5.8043,-5.8105,-5.8205,-5.8195,-5.8239,-5.8257,-5.8306,-5.8387,-5.8289,-5.8291,-5.8303,-5.85,-5.8505,-5.8521,-5.8389,-5.8391,-5.8394,-5.8494,0,-5.7596,-5.7728,-5.7758,-5.7872,-5.7938,-5.795,-5.8015,-5.807,-5.8102,-5.8163,-5.8199,-5.8268,-5.8252,-5.8278,-5.8328,-5.8367,-5.8426,-5.836,-5.8446,-5.8449,-5.8425,-5.8539,-5.8544,-5.8636,-5.8508,-5.851,-5.8511,0,-5.7719,-5.7783,-5.7904,-5.7974,-5.8003,-5.8061,-5.8133,-5.8192,-5.8256,-5.8276,-5.8327,-5.834,-5.8419,-5.8386,-5.8495,-5.8449,-5.8487,-5.8512,-5.8516,-5.8522,-5.8481,-5.8544,-5.8666,-5.8678,-5.8533,-5.8531,-5.853,0,-5.777,-5.7887,-5.7974,-5.8007,-5.8091,-5.8132,-5.8169,-5.823,-5.8274,-5.8339,-5.8367,-5.844,-5.8479,-5.8535,-5.8569,-5.8541,-5.8675,-5.8644,-5.8693,-5.8692,-5.8717,-5.8714,-5.8842,-5.8747,-5.8747,-5.8747,-5.8746,0,-5.7867,-5.794,-5.7998,-5.8051,-5.8134,-5.8169,-5.825,-5.8287,-5.8342,-5.8403,-5.8419,-5.8476,-5.8518,-5.8582,-5.8609,-5.8695,-5.8713,-5.8731,-5.8736,-5.8727,-5.8725,-5.8749,-5.8742,-5.875,-5.875,-5.8749,-5.8748,0,-5.7935,-5.7977,-5.8073,-5.8147,-5.8167,-5.8225,-5.8288,-5.834,-5.8375,-5.8453,-5.8473,-5.8527,-5.8603,-5.8643,-5.8737,-5.8756,-5.8851,-5.8855,-5.8829,-5.8831,-5.8877,-5.8871,-5.9023,-5.9044,-5.8937,-5.8938,-5.8939,0,-5.7993,-5.8049,-5.813,-5.8172,-5.8211,-5.8279,-5.8325,-5.8362,-5.8409,-5.8488,-5.8531,-5.8608,-5.8671,-5.8792,-5.8839,-5.8912,-5.8916,-5.8965,-5.8926,-5.8916,-5.8914,-5.8908,-5.8914,-5.8969,-5.897,-5.8971,-5.8972,0,-5.809,-5.8109,-5.8174,-5.8248,-5.8302,-5.8362,-5.8421,-5.8455,-5.8502,-5.8555,-5.8633,-5.8682,-5.878,-5.8856,-5.8933,-5.8972,-5.8979,-5.8984,-5.8999,-5.8988,-5.897,-5.8978,-5.8844,-5.8979,-5.8979,-5.8978,-5.8978,-5.8977,-5.8153,-5.8204,-5.8268,-5.8341,-5.839,-5.8446,-5.8499,-5.8542,-5.8607,-5.869,-5.8709,-5.8791,-5.8856,-5.896,-5.9002,-5.9067,-5.9057,-5.9079,-5.9084,-5.9088,-5.9088,-5.8963,-5.9082,-5.9082,-5.9082,-5.9081,-5.9081,0,-5.8248,-5.8291,-5.8359,-5.8441,-5.8499,-5.8504,-5.8571,-5.8618,-5.869,-5.875,-5.8813,-5.8903,-5.8978,-5.9033,-5.911,-5.9151,-5.9157,-5.917,-5.9165,-5.9174,-5.9094,-5.9072,-5.9164,-5.9164,-5.9164,-5.9164,-5.9164,-5.9164,-5.8304,-5.8391,-5.8418,-5.8529,-5.8573,-5.8653,-5.8691,-5.8742,-5.879,-5.889,-5.8953,-5.8989,-5.9048,-5.9129,-5.9198,-5.9213,-5.9239,-5.9251,-5.9265,-5.9189,-5.918,-5.9171,-5.9151,-5.9257,-5.9257,-5.9339,-5.934,-5.9341]},{"header":{"parameterUnit":"m.s-1","parameterCategory":1,"la1":30.2991,"la2":30.254,"lo1":-89.0895,"lo2":-89.0444,"dy":0.0017,"dx":0.0017,"nx":28,"ny":28,"refTime":"2024-04-28T09:00:00:Z","depth":0,"parameterNumber":3,"parameterNumberName":"V-component_of_WINDS"},"data":[0,0,0,0,0,0,0,0,0,0,0,0,0,0,0,0,0,0,0,0,0,0,0,0,0,0,0,0,0,0,0,0,0,0,0,0,0,0,0,0,0,0,0,0,0,0,0,0,0,0,0,0,0,0,0,0,0,0,5.6394,5.6395,0,5.6422,5.6422,5.6423,5.6436,5.6436,5.6436,5.6436,5.646,5.646,5.6461,0,0,0,0,0,0,0,0,0,0,0,0,0,5.635,5.6351,5.6394,5.6395,5.6395,5.6422,5.6422,5.6423,5.6436,5.6436,5.6436,5.6436,5.646,5.646,5.6461,0,0,0,0,0,0,0,0,0,0,0,0,0,5.6373,5.6351,5.6394,5.6405,5.6406,5.6422,5.6422,5.6423,5.6436,5.6436,5.6436,5.6436,5.6459,5.646,5.6461,5.6467,0,0,5.6464,5.6465,0,0,0,0,0,0,0,0,5.6372,5.6374,5.6403,5.6404,5.6406,5.6426,5.6416,5.6437,5.6436,5.6425,5.6436,5.6436,5.6448,5.645,5.6455,5.6468,5.6469,5.6464,5.6465,5.6465,5.6465,0,0,0,0,0,0,0,5.637,5.6373,5.6405,5.6403,5.6405,5.6408,5.6411,5.642,5.6436,5.6426,5.6427,5.643,5.6449,5.6454,5.6456,5.6469,5.6464,5.6465,5.6466,5.6466,5.6491,5.6491,0,0,0,0,0,0,5.6367,5.6372,5.6404,5.6406,5.6388,5.6409,5.6412,5.6419,5.6436,5.6438,5.643,5.6431,5.6453,5.6455,5.6457,5.6466,5.6465,5.6466,5.6467,5.6491,5.6491,5.6491,0,0,0,0,0,0,5.6366,5.637,5.6403,5.6389,5.6394,5.6409,5.6417,5.642,5.6425,5.6439,5.6442,5.6433,5.6453,5.6455,5.6465,5.6467,5.6466,5.6467,5.6491,5.6491,5.6491,5.6484,0,0,0,0,0,0,5.6365,5.6369,5.6372,5.6389,5.6394,5.6412,5.6417,5.642,5.6427,5.6428,5.6442,5.6445,5.6453,5.6464,5.6466,5.6468,5.6468,5.6491,5.6491,5.6491,5.6484,5.6483,5.6483,0,0,0,0,0,5.6363,5.6367,5.6372,5.6376,5.6398,5.6412,5.6415,5.6425,5.6427,5.643,5.644,5.6444,5.6467,5.6465,5.6467,5.647,5.649,5.6491,5.6491,5.6484,5.6483,5.6483,0,0,0,0,0,0,5.6347,5.6369,5.6375,5.6385,5.6397,5.6414,5.6417,5.6424,5.6434,5.6434,5.6446,5.6449,5.6458,5.6465,5.6462,5.6477,5.6479,5.648,5.6473,5.6472,5.6472,5.647,5.6469,0,0,0,0,0,5.6345,5.6355,5.6374,5.6381,5.6387,5.6401,5.6407,5.6415,5.6427,5.6431,5.6442,5.6452,5.6462,5.6467,5.6477,5.6485,5.6489,5.6488,5.6488,5.6488,5.6488,5.6495,5.6495,5.6492,5.6492,5.6492,0,0,5.634,5.6354,5.6359,5.6378,5.6388,5.6398,5.6405,5.6415,5.6422,5.6432,5.6443,5.6451,5.6464,5.6473,5.6478,5.6479,5.649,5.6488,5.6488,5.6488,5.6495,5.6496,5.6496,5.6492,5.6492,5.6492,0,0,5.6337,5.6348,5.6356,5.6367,5.6383,5.6393,5.6395,5.6412,5.6419,5.643,5.6439,5.6448,5.6464,5.6473,5.648,5.6484,5.6489,5.6486,5.6484,5.6491,5.6491,5.6492,5.6494,5.6495,5.6487,5.6487,5.6487,0,5.6328,5.6345,5.6359,5.6369,5.6378,5.639,5.6399,5.6408,5.6426,5.6431,5.6433,5.6455,5.6464,5.6477,5.6479,5.6483,5.6486,5.6484,5.6491,5.6491,5.6491,5.6494,5.6495,5.6486,5.6486,5.6486,5.6486,0,5.6334,5.6346,5.635,5.637,5.6379,5.6388,5.6403,5.6411,5.6419,5.6429,5.6441,5.6453,5.6466,5.647,5.6476,5.6485,5.6485,5.6489,5.649,5.6491,5.6494,5.6495,5.6486,5.6486,5.6486,5.6486,0,0,5.6318,5.6349,5.635,5.6361,5.6381,5.639,5.64,5.6415,5.6422,5.6434,5.6444,5.6459,5.6463,5.6471,5.6478,5.6484,5.6488,5.6487,5.6487,5.6487,5.65,5.6498,5.6499,5.6492,5.6493,5.6493,5.6499,0,5.6318,5.6339,5.6354,5.6369,5.6381,5.6394,5.6404,5.6417,5.6427,5.6438,5.6449,5.646,5.6464,5.6469,5.6476,5.6486,5.6491,5.6486,5.6501,5.6501,5.6497,5.65,5.6497,5.6502,5.65,5.65,5.6501,0,5.632,5.6336,5.6352,5.6375,5.638,5.6388,5.6405,5.6415,5.6431,5.6438,5.6449,5.6457,5.6469,5.6471,5.6487,5.6484,5.6491,5.6497,5.6498,5.6499,5.6501,5.6502,5.6504,5.6505,5.6502,5.6502,5.6502,0,5.6309,5.6333,5.6347,5.6356,5.6381,5.6387,5.6397,5.6414,5.6423,5.6437,5.6443,5.6458,5.6465,5.6476,5.6489,5.6489,5.6505,5.6507,5.6511,5.6511,5.6513,5.6513,5.6517,5.6517,5.6517,5.6517,5.6517,0,5.6307,5.6317,5.6343,5.6352,5.6364,5.6381,5.6392,5.6403,5.6418,5.6429,5.6441,5.6451,5.6467,5.6479,5.6489,5.6502,5.6505,5.6511,5.6513,5.651,5.6509,5.6514,5.6514,5.6517,5.6517,5.6517,5.6517,0,5.6296,5.6314,5.633,5.6354,5.6361,5.6369,5.6389,5.6398,5.641,5.6424,5.6428,5.6447,5.6462,5.6476,5.6495,5.6502,5.6515,5.6518,5.651,5.6512,5.6515,5.6515,5.6523,5.6525,5.6523,5.6523,5.6523,0,5.6294,5.6302,5.6329,5.6338,5.635,5.6364,5.6374,5.6392,5.6402,5.6423,5.6429,5.6445,5.6459,5.6482,5.6497,5.6512,5.6516,5.6518,5.6518,5.6515,5.6517,5.6516,5.6518,5.6517,5.6517,5.6517,5.6517,0,5.6288,5.6298,5.6313,5.6333,5.6346,5.6361,5.6377,5.6383,5.6404,5.6415,5.6432,5.6443,5.6464,5.648,5.6498,5.6508,5.6516,5.6517,5.6519,5.6515,5.6511,5.6515,5.651,5.6516,5.6516,5.6516,5.6516,5.6516,5.6282,5.6291,5.6313,5.633,5.6345,5.636,5.637,5.6386,5.64,5.6421,5.643,5.6447,5.6465,5.6489,5.65,5.6513,5.6515,5.6517,5.6518,5.6518,5.6518,5.6509,5.6516,5.6516,5.6516,5.6516,5.6516,0,5.6278,5.6293,5.631,5.6333,5.6347,5.6356,5.6375,5.6386,5.6402,5.6418,5.6433,5.6453,5.647,5.6487,5.6505,5.6512,5.6516,5.6516,5.6516,5.6518,5.6515,5.6512,5.6512,5.6512,5.6512,5.6512,5.6512,5.6512,5.6278,5.6295,5.6307,5.6332,5.6347,5.6365,5.6376,5.639,5.6404,5.6427,5.6442,5.6454,5.6471,5.649,5.6506,5.6511,5.6517,5.6516,5.6521,5.6518,5.6518,5.6518,5.6516,5.6517,5.6517,5.6523,5.6523,5.6523]}]]